Regional Weather Roundup
Issued by NWS

Home | Current Version | Previous Version | Text Only | Print | Product List | Glossary On
Versions: 1 2 3 4 5 6 7 8 9 10 11 12 13 14 15 16 17 18 19 20 21 22 23 24 25 26 27 28 29 30 31 32 33 34 35 36 37 38 39 40 41 42 43 44 45 46 47 48 49 50
000
ASUS45 KCYS 280310
RWRWY

WYOMING REGIONAL WEATHER ROUNDUP
NATIONAL WEATHER SERVICE CHEYENNE WY
900 PM MDT MON JUL 27 2015

NOTE:  "FAIR" INDICATES FEW OR NO CLOUDS BELOW 12,000 FEET
WITH NO SIGNIFICANT WEATHER AND/OR OBSTRUCTIONS TO VISIBILITY.

WYZ001-280400-
YELLOWSTONE NATIONAL PARK

CITY           SKY/WX    TMP DP  RH WIND       PRES   REMARKS
LK YELLOWSTONE   N/A     37  34  89 W13G18    30.20R WCI  29
W YELLOWSTONE  NOT AVBL

$$
WYZ002>013-054>058-071-098>099-280400-
NORTHERN WYOMING

CITY           SKY/WX    TMP DP  RH WIND       PRES   REMARKS
JACKSON        CLOUDY    46  37  71 W14G21    30.19R
CODY           FAIR      57  36  44 W18G31    29.99R
GREYBULL       FAIR      60  48  64 NW9       29.92R
WORLAND        FAIR      60  46  59 NW6       29.95R
SHERIDAN       FAIR      53  48  83 W13       29.92R
BUFFALO        FAIR      52  48  86 N10       29.91R
GILLETTE       FAIR      56  47  71 NW20      29.89R
HULETT         MOCLDY    61  52  72 NW14G24   29.88R
NEWCASTLE      FAIR      66  59  77 CALM      29.79R

$$
WYZ014>020-022>026-101>103-280400-
CENTRAL WYOMING

CITY           SKY/WX    TMP DP  RH WIND       PRES   REMARKS
BIG PINEY      MOCLDY    53  30  41 NW10      30.21R
PINEDALE       MOCLDY    52  30  43 W8        30.21S
DUBOIS         MOCLDY    45  32  61 NW15G25   30.14R
LANDER           N/A     64  25  22 W16       30.01
RIVERTON       FAIR      62  31  31 NW21      30.01R
CASPER         FAIR      69  29  22 W23G29    29.92R
DOUGLAS        FAIR      75  31  19 W23G33    29.88R

$$
WYZ021-027>030-104>119-280400-
SOUTHERN WYOMING

CITY           SKY/WX    TMP DP  RH WIND       PRES   REMARKS
EVANSTON       FAIR      56  33  42 W14       30.22R
KEMMERER       FAIR      52  34  50 W9        30.22R
FORT BRIDGER   CLEAR     59  32  36 W15G23    30.24R
ROCK SPRINGS   FAIR      60  31  33 W24G36    30.15R
DIXON          FAIR      68  32  26 NW14      30.13R
RAWLINS        FAIR      64  31  28 W29G38    30.09R
SARATOGA       FAIR      61  36  39 W6        30.12R
LARAMIE        FAIR      64  35  34 NW23G29   30.05R
CHEYENNE       FAIR      78  35  21 W14       29.94R
TORRINGTON     FAIR      79  56  45 N5        29.79R
PINE BLUFFS    MOCLDY    79  52  38 CALM      29.86R

$$



USA.gov is the U.S. government's official web portal to all federal, state and local government web resources and services.